リニア彗星

C/2007 D1 ( LINEAR )

English version
Home page
Updated on May 7, 2015

---------------------------------------------------------------------

・ プロフィール

発見日 2007年2月17日
発見光度 18.9等
発見者 Lincoln Laboratory Near-Earth Asteroid Research project

・ 写真集

・ 軌道要素

Epoch 2007 June 29.0 TT = JDT 2454280.5
T 2007 June 19.46720 TT                                 MPC
q   8.7937387            (2000.0)            P               Q
z  -0.0002188      Peri.  340.15954     -0.88994857     -0.44440922
 +/-0.0000013      Node   171.09853     +0.45349977     -0.83857248
e   1.0019239      Incl.   41.45027     -0.04826487     +0.31511371
From 469 observations 2007 Feb. 17-2013 May 4, mean residual 0".6.

・ 星図

・ 光度変化

        m1 = 3.0 + 5 logΔ + 10.0 log r

---------------------------------------------------------------------

軌道要素はM.P.E.C. 2013-N23に掲載されたものです。
星図は StellaNavigator Ver.2.0 for Windows (アストロアーツ編著 / アスキー出版局刊) で作成したものです。
光度グラフはComet for Windowsで作成したものです。

---------------------------------------------------------------------

Copyright(C) Seiichi Yoshida (comet@aerith.net). All rights reserved.